This is the latest recevied weather packets stored in our database for station/object N0HEQ. If no packets are shown the sender has not sent any weather packets the latest 1 day(s).
| Time | Temp. | Humidity | Pressure | Rain* | Wind** | Luminosity | Snow |
|---|---|---|---|---|---|---|---|
| 1778015916 | 3.89° C | 94% | 1014.6 hPa | 0 mm | 0 m/s | 42 W/m² | - |
| 1778015614 | 3.89° C | 94% | 1014.2 hPa | 0 mm | 0 m/s | 58 W/m² | - |
| 1778015310 | 3.89° C | 94% | 1014.4 hPa | 0 mm | 0 m/s | 58 W/m² | - |
| 1778015007 | 3.89° C | 94% | 1014.7 hPa | 0 mm | 0 m/s | 66 W/m² | - |
| 1778014704 | 4.44° C | 94% | 1014.7 hPa | 0 mm | 0.45 m/s, 47° | 38 W/m² | - |
| 1778014402 | 4.44° C | 93% | 1014.9 hPa | 0 mm | 1.34 m/s, 71° | 61 W/m² | - |
| 1778014098 | 4.44° C | 93% | 1014.8 hPa | 0 mm | 0.45 m/s, 135° | 75 W/m² | - |
| 1778013797 | 4.44° C | 93% | 1015 hPa | 0 mm | 0.89 m/s, 54° | 49 W/m² | - |
| 1778013494 | 4.44° C | 92% | 1015.4 hPa | 0 mm | 1.34 m/s, 255° | 35 W/m² | - |
| 1778013190 | 5° C | 92% | 1015.3 hPa | 0 mm | 0.89 m/s, 63° | 48 W/m² | - |
| 1778012886 | 5° C | 91% | 1015.2 hPa | 0 mm | 0 m/s | 65 W/m² | - |
| 1778012582 | 5.56° C | 91% | 1015.2 hPa | 0 mm | 0.89 m/s, 50° | 155 W/m² | - |
| 1778012279 | 5.56° C | 92% | 1015.4 hPa | 0 mm | 0.89 m/s, 211° | 513 W/m² | - |
| 1778011977 | 5° C | 90% | 1015.5 hPa | 0 mm | 0.45 m/s, 121° | 238 W/m² | - |
| 1778011675 | 5° C | 90% | 1015.5 hPa | 0 mm | 0 m/s | 222 W/m² | - |
| 1778011372 | 5° C | 90% | 1015.5 hPa | 0 mm | 0 m/s | 154 W/m² | - |
| 1778011067 | 4.44° C | 90% | 1015.3 hPa | 0 mm | 0.45 m/s, 59° | 142 W/m² | - |
| 1778010765 | 5° C | 91% | 1015.5 hPa | 0 mm | 0 m/s | 97 W/m² | - |
| 1778010462 | 5.56° C | 91% | 1015.4 hPa | 0 mm | 0.45 m/s, 196° | 122 W/m² | - |
| 1778010158 | 5.56° C | 93% | 1015.2 hPa | 0 mm | 0 m/s | 209 W/m² | - |
| 1778009854 | 5° C | 93% | 1015.3 hPa | 0 mm | 0 m/s | 184 W/m² | - |
| 1778009551 | 5° C | 94% | 1015.6 hPa | 0 mm | 0.45 m/s, 85° | 129 W/m² | - |
| 1778009250 | 4.44° C | 95% | 1015.5 hPa | 0 mm | 0.89 m/s, 80° | 145 W/m² | - |
| 1778008947 | 5° C | 96% | 1015.5 hPa | 0 mm | 0.89 m/s, 74° | 324 W/m² | - |
| 1778008645 | 4.44° C | 96% | 1015.6 hPa | 0 mm | 0 m/s | 252 W/m² | - |
* Rain latest hour (hover to see other rain measurements)
** Current wind speed in m/s (hover to see current wind gust speed)